Monticello, KY

2:47 AM EDT on April 25, 2017 (GMT -0400)
Wayne County

Weather History for KEKQ - February, 2013

Change the Weather History Date:

Saturday, February 23, 2013

  Actual Average Record
Temperature  
Mean Temperature 40 °F -  
Max Temperature 47 °F 52 °F 75 °F (1982)
Min Temperature 29 °F 32 °F 4 °F (1960)
Degree Days  
Heating Degree Days 26    
Moisture  
Dew Point 36 °F    
Average Humidity 80    
Maximum Humidity 93    
Minimum Humidity 58    
Precipitation  
Precipitation 0.00 in - - ()
Sea Level Pressure  
Sea Level Pressure 30.00 in    
Wind  
Wind Speed 4 mph (SE)    
Max Wind Speed 8 mph    
Max Gust Speed -    
Visibility 10 miles    
Events      
Averages and records for this station are not official NWS values.
T = Trace of Precipitation, MM = Missing Value Source: NWS Daily Summary

Daily Weather History Graph

Daily Weather History Graph

Search for Another Location

Airport or City:

Trip Planner

Search our weather history database for the weather conditions in past years. The results will help you decide how hot, cold, wet, or windy it might be!

Date:

Astronomy

Feb. 23, 2013 Rise Set
Actual Time 6:17 AM CST 5:28 PM CST
Civil Twilight 5:51 AM CST 5:54 PM CST
Nautical Twilight 5:21 AM CST 6:24 PM CST
Astronomical Twilight 4:51 AM CST 6:54 PM CST
Moon 3:39 PM CST (2/23) 4:37 AM CST (2/23)
Length of Visible Light 12h 02m
Length of Day
11h 10m
Waxing Gibbous, 95% of the Moon is Illuminated
Feb 23
Waxing Gibbous
Feb 25
Full
Mar 4
Last Quarter
Mar 11
New
Mar 19
First Quarter

Hourly Weather History & Observations

Time (CST) Temp. Windchill Dew Point Humidity Pressure Visibility Wind Dir Wind Speed Gust Speed Precip Events Conditions
12:39 AM 46.4 °F 42.9 °F 44.6 °F 93% 30.02 in 10.0 mi ESE 6.9 mph - N/A   Overcast
12:56 AM 46.9 °F - 43.9 °F 89% 30.03 in 10.0 mi SE 6.9 mph - N/A   Overcast
1:28 AM 46.4 °F 42.9 °F 42.8 °F 87% 30.00 in 10.0 mi SE 6.9 mph - N/A   Overcast
1:56 AM 45.0 °F - 41.9 °F 89% 30.02 in 10.0 mi Calm Calm - N/A   Overcast
2:18 AM 44.6 °F - 42.8 °F 93% 30.00 in 10.0 mi Calm Calm - N/A   Overcast
2:56 AM 43.0 °F 40.3 °F 39.9 °F 89% 30.01 in 10.0 mi ESE 4.6 mph - N/A   Overcast
3:56 AM 43.0 °F - 39.9 °F 89% 30.01 in 10.0 mi Calm Calm - N/A   Overcast
4:56 AM 43.0 °F - 38.8 °F 85% 30.01 in 10.0 mi Calm Calm - N/A   Overcast
5:34 AM 42.8 °F - 39.2 °F 87% 29.99 in 10.0 mi Calm Calm - N/A   Overcast
5:56 AM 41.9 °F - 38.8 °F 89% 30.01 in 10.0 mi Calm Calm - N/A   Overcast
6:56 AM 39.9 °F 35.8 °F 36.9 °F 89% 30.03 in 10.0 mi SE 5.8 mph - N/A   Overcast
7:15 AM 39.2 °F 37.0 °F 35.6 °F 87% 30.00 in 10.0 mi SE 3.5 mph - N/A   Overcast
7:40 AM 39.2 °F 35.0 °F 35.6 °F 87% 30.01 in 10.0 mi SE 5.8 mph - N/A   Overcast
7:56 AM 38.8 °F 34.6 °F 36.0 °F 89% 30.04 in 10.0 mi ESE 5.8 mph - N/A   Overcast
8:56 AM 38.8 °F 33.8 °F 36.0 °F 89% 30.03 in 8.0 mi South 6.9 mph - N/A   Overcast
9:56 AM 39.9 °F 37.8 °F 34.9 °F 82% 30.02 in 6.0 mi Variable 3.5 mph - N/A   Haze
10:56 AM 41.9 °F - 34.9 °F 76% 30.01 in 9.0 mi Calm Calm - N/A   Overcast
11:36 AM 42.8 °F - 35.6 °F 76% 29.98 in 10.0 mi Calm Calm - N/A   Overcast
11:56 AM 43.9 °F 41.3 °F 36.9 °F 76% 29.99 in 8.0 mi SE 4.6 mph - N/A   Overcast
12:56 PM 46.9 °F - 36.9 °F 68% 29.99 in 10.0 mi East 5.8 mph - N/A   Overcast
1:25 PM 46.4 °F 42.4 °F 37.4 °F 71% 29.95 in 10.0 mi SSE 8.1 mph - N/A   Partly Cloudy
1:56 PM 46.9 °F - 34.9 °F 63% 29.97 in 10.0 mi SE 6.9 mph - N/A   Clear
2:56 PM 46.9 °F - 32.9 °F 58% 29.96 in 10.0 mi Calm Calm - N/A   Clear
3:56 PM 47.8 °F - 34.0 °F 59% 29.95 in 10.0 mi Calm Calm - N/A   Clear
4:56 PM 46.9 °F - 34.9 °F 63% 29.94 in 10.0 mi SSE 6.9 mph - N/A   Clear
5:56 PM 39.9 °F 35.8 °F 32.9 °F 76% 29.94 in 10.0 mi SE 5.8 mph - N/A   Clear
6:56 PM 39.9 °F 34.5 °F 28.0 °F 63% 29.97 in 10.0 mi SE 8.1 mph - N/A   Partly Cloudy
7:56 PM 37.9 °F - 28.0 °F 68% 29.99 in 10.0 mi Calm Calm - N/A   Overcast
8:56 PM 32.9 °F - 27.1 °F 79% 30.01 in 10.0 mi Calm Calm - N/A   Mostly Cloudy
10:56 PM 32.9 °F - 26.1 °F 76% 30.01 in 10.0 mi Calm Calm - N/A   Clear
11:56 PM 29.1 °F - 24.1 °F 81% 30.04 in 10.0 mi Calm Calm - N/A   Clear